GW0557 Weather Reports


time (UTC)temp
F
wind
direction
speed
knots
gust
knots
rain 1hr
in
rain 24hr
in
rain mn
in
humidity
%
barometer
mb
20260906064602 70 27 4.3 8.7 0.00 0.00 0.00 88 1015.5
20260906063102 70 39 4.3 7.8 0.00 0.00 0.00 90 1015.2
20260906061603 70 18 4.3 7.0 0.00 0.00 0.00 91 1015.3
20260906054607 71 61 2.6 4.3 0.00 0.00 0.00 90 1015.0
20260906053101 71 28 1.7 4.3 0.00 0.00 0.00 90 1015.0
20260906051608 71 29 2.6 4.3 0.00 0.00 0.00 90 1015.1
20260906044605 72 23 3.5 7.8 0.00 0.00 0.00 89 1014.8
20260906043100 73 30 5.2 8.7 0.00 0.00 0.00 89 1014.9
20260906041610 73 31 5.2 8.7 0.00 0.00 0.00 88 1014.8
20260906040118 74 49 5.2 7.8 0.00 0.00 0.00 88 1014.9
20260906034606 74 26 4.3 8.7 0.00 0.00 0.00 89 1014.8
20260906033107 74 46 3.5 8.7 0.00 0.00 0.00 88 1014.7
20260906031559 74 38 3.5 7.8 0.00 0.00 0.00 89 1014.6
20260906030110 75 76 3.5 7.8 0.00 0.00 0.00 88 1014.6
20260906024627 75 49 6.1 9.6 0.00 0.00 0.00 88 1014.2
20260906023103 75 62 3.5 7.8 0.00 0.00 0.00 88 1014.1
20260906021611 75 79 2.6 5.2 0.00 0.00 0.00 87 1014.1
20260906014612 76 323 0.9 2.6 0.00 0.00 0.00 86 1013.8
20260906013103 77 323 0.9 2.6 0.00 0.00 0.00 85 1013.7
20260906011602 77 0 0.9 2.6 0.00 0.00 0.00 85 1013.5
20260906010120 77 0 0.0 1.7 0.00 0.00 0.00 86 1013.3
20260906004607 77 0 0.0 0.0 0.00 0.00 0.00 85 1013.2
20260906003120 78 0 0.0 0.0 0.00 0.00 0.00 84 1012.8
20260906001606 78 31 0.9 1.7 0.00 0.00 0.00 83 1012.8
20260906000109 79 30 1.7 3.5 0.00 0.00 0.00 82 1012.8
20260905234607 80 40 1.7 3.5 0.00 0.00 0.00 82 1013.0
20260905233102 81 12 1.7 4.3 0.00 0.00 0.00 82 1013.0
20260905231603 81 0 0.0 0.0 0.00 0.00 0.00 81 1012.7
20260905230111 81 0 0.0 0.0 0.00 0.00 0.00 80 1012.2
20260905224603 81 0 0.0 0.0 0.00 0.00 0.00 79 1012.1
20260905223103 81 0 0.0 0.0 0.00 0.00 0.00 78 1012.5
20260905221600 80 0 0.0 0.0 0.00 0.00 0.00 79 1012.5
20260905220109 79 0 0.0 0.0 0.00 0.00 0.00 78 1012.0
20260905214600 79 0 0.0 0.0 0.00 0.00 0.00 77 1012.3
20260905213105 79 0 0.9 3.5 0.00 0.00 0.00 76 1012.8
20260905211558 81 0 0.0 1.7 0.00 0.00 0.00 74 1012.2
20260905210108 84 238 0.0 2.6 0.00 0.00 0.00 73 1012.4
20260905204611 86 0 0.0 0.0 0.00 0.00 0.00 74 1012.3
20260905203107 87 0 0.0 0.9 0.00 0.00 0.00 73 1012.5
20260905201606 87 0 0.0 0.9 0.00 0.00 0.00 70 1012.5
20260905200107 88 0 0.0 0.9 0.00 0.00 0.00 69 1012.9
20260905194607 89 0 0.0 1.7 0.00 0.00 0.00 68 1012.6
20260905193111 90 0 0.0 2.6 0.00 0.00 0.00 65 1013.0
20260905191611 90 247 0.9 5.2 0.00 0.00 0.00 64 1013.1
20260905190104 90 279 0.0 4.3 0.00 0.00 0.00 63 1013.3
20260905184613 90 202 0.0 4.3 0.00 0.00 0.00 64 1013.4
20260905183107 90 0 0.0 4.3 0.00 0.00 0.00 65 1013.7
20260905181608 89 222 0.9 5.2 0.00 0.00 0.00 66 1013.9
20260905180108 89 210 1.7 5.2 0.00 0.00 0.00 64 1013.9
20260905174604 88 232 0.9 2.6 0.00 0.00 0.00 66 1014.2
20260905173101 87 190 0.9 5.2 0.00 0.00 0.00 66 1014.2
20260905171601 86 175 1.7 5.2 0.00 0.00 0.00 67 1014.3
20260905170114 85 205 0.9 4.3 0.00 0.00 0.00 68 1014.5
20260905164606 84 175 1.7 5.2 0.00 0.00 0.00 67 1014.6
20260905163100 83 231 1.7 5.2 0.00 0.00 0.00 70 1014.8
20260905161600 83 200 1.7 4.3 0.00 0.00 0.00 68 1014.7
20260905160104 83 235 1.7 7.0 0.00 0.00 0.00 69 1014.9
20260905154605 82 198 1.7 7.0 0.00 0.00 0.00 71 1014.7
20260905153100 81 185 2.6 9.6 0.00 0.00 0.00 71 1014.7
20260905151606 80 267 3.5 10.4 0.00 0.00 0.00 72 1014.6
20260905150105 79 191 3.5 7.0 0.00 0.00 0.00 72 1014.9
20260905144602 78 169 3.5 8.7 0.00 0.00 0.00 74 1015.0
20260905143112 77 188 2.6 12.2 0.00 0.00 0.00 75 1014.7
20260905141605 76 202 3.5 7.8 0.00 0.00 0.00 76 1015.0
20260905140101 75 209 1.7 8.7 0.00 0.00 0.00 78 1015.0
20260905134603 75 218 2.6 6.1 0.00 0.00 0.00 78 1014.9
20260905133058 74 0 1.7 7.0 0.00 0.00 0.00 80 1015.0
20260905131559 73 217 1.7 5.2 0.00 0.00 0.00 80 1015.1
20260905124602 72 184 2.6 7.0 0.00 0.00 0.00 81 1015.0
20260905123105 72 212 3.5 9.6 0.00 0.00 0.00 81 1015.1
20260905121601 72 190 1.7 4.3 0.00 0.00 0.00 83 1015.0
20260905120107 71 205 0.0 4.3 0.00 0.00 0.00 83 1015.0
20260905114605 72 74 1.7 7.0 0.00 0.00 0.00 82 1014.6
20260905113106 73 94 3.5 9.6 0.00 0.00 0.00 82 1014.7
20260905111646 73 9 2.6 6.1 0.00 0.00 0.00 89 1014.3
20260905110059 73 0 0.0 0.0 0.00 0.00 0.00 89 1014.0
20260905104601 73 0 0.0 0.0 0.00 0.00 0.00 89 1013.6
20260905103105 73 0 0.0 0.0 0.00 0.00 0.00 87 1013.6
20260905101603 74 0 0.0 0.0 0.00 0.00 0.00 87 1013.8
20260905100110 74 0 0.0 0.0 0.00 0.00 0.00 86 1013.4
20260905094604 74 0 0.0 0.0 0.00 0.00 0.00 87 1013.5
20260905093104 75 0 0.0 0.0 0.00 0.00 0.00 86 1013.6
20260905091610 75 0 0.0 0.0 0.00 0.00 0.00 86 1013.5
20260905090104 75 0 0.0 0.0 0.00 0.00 0.00 86 1013.5
20260905084603 75 0 0.0 0.0 0.00 0.00 0.00 86 1013.7
20260905083102 75 0 0.0 0.0 0.00 0.00 0.00 86 1013.5
20260905081605 75 0 0.0 0.0 0.00 0.00 0.00 86 1013.4
20260905080107 75 0 0.0 0.0 0.00 0.00 0.00 87 1013.2
20260905074558 75 0 0.0 0.0 0.00 0.00 0.00 87 1012.9
20260905073103 75 0 0.0 0.0 0.00 0.00 0.00 87 1013.0
20260905071605 75 0 0.0 0.0 0.00 0.00 0.00 87 1013.1
20260905070105 75 0 0.0 0.0 0.00 0.00 0.00 87 1013.2